Welcome to the New NWS' Forecast!
Most changes are behind the scenes, but click here for differences you might notice.
Latest weather observations around

Frenchville, Northern Aroostook Regional Airport (KFVE)

Using English Units (Switch to International System of Units)
Date/ Time (EDT) Wind (mph) Vis. (mi) Weather Sky Cond. Temp (°F) Rel. Humidity Wind Chill (°F) Heat Index (°F) Pressure Precip. (in)
Air Dwpt 6 hour Altimeter (inHg) Sea level (inHg) 1 hr 3 hr 6 hr
Max Min
Aug 15 22:53 NW 11 10 Cloudy OVC040 61 53     75%     29.86 29.84      
Aug 15 21:53 NW 11 10 Cloudy OVC039 63 53     70%     29.86 29.84      
Aug 15 20:53 NW 11 10 Mostly Cloudy SCT037 BKN080 64 55     73%     29.84 29.83      
Aug 15 19:53 NW 9 10 Cloudy OVC032 67 57     71%     29.82 29.8     0
Aug 15 19:35 WNW 9 10 Cloudy OVC030 68 59     73%     29.82        
Aug 15 19:20 NW 9 10 Cloudy OVC028 69 60     73%     29.82        
Aug 15 19:06 WNW 7 10 Cloudy OVC026 69 61     75%     29.81        
Aug 15 18:53 NNW 6 10 Cloudy OVC025 70 61     73%     29.8 29.78      
Aug 15 18:09 NNW 3 10 Mostly Cloudy BKN021 BKN026 71 64     79%   72 29.79        
Aug 15 17:53 Calm 10 Mostly Clear FEW026 FEW080 70 65     84%     29.79 29.78 0    
Aug 15 17:44 NNW 5 10 Partly Cloudy SCT027 SCT034 SCT080 70 65     84%     29.79   0    
Aug 15 17:29 N 8 7 Light Rain FEW005 BKN027 OVC090 70 65     84%     29.79   0    
Aug 15 17:12 NW 5 5 Light Rain and Fog/Mist BKN027 BKN036 OVC090 70 66     87%     29.79   0    
Aug 15 17:03 NE 6 2 Light Rain and Fog/Mist BKN026 OVC040 70 66     87%     29.78   0    
Aug 15 16:56 N 6 1.5 Rain and Fog/Mist BKN026 OVC041 70 66     87%     29.78   0    
Aug 15 16:54 N 5 1.75 Rain and Fog/Mist SCT026 BKN041 71 67     87%   72 29.78   0    
Aug 15 16:49 5 2.5 Light Rain and Fog/Mist BKN027 BKN043 OVC075 71 67     87%   72 29.78 29.76 0 0  
Aug 15 16:48 5 2.5 Light Rain and Fog/Mist BKN027 BKN043 OVC075 72 66     83%   72 29.78   0    
Aug 15 16:34 W 3 6 Thunderstorms and Rain and Fog/Mist SCT043 SCT065 BKN080 71 67     87%   72 29.77   0    
Aug 15 16:16 Calm 8 Light Rain FEW030 SCT065 BKN080 72 67     84%   73 29.76   0    
Aug 15 15:53 N 3 4 Light Rain SCT029 SCT055 BKN075 72 67     84%   73 29.76 29.74 0    
Aug 15 15:44 NNW 3 6 Light Rain FEW023 SCT060 BKN095 72 67     84%   73 29.76   0    
Aug 15 15:23 5 5 Thunderstorms and Rain FEW070 BKN090 OVC110 72 66     82%   73 29.77   0    
Aug 15 14:53 NW 9 9 Light Rain FEW035 FEW055 SCT075 73 65     76%   74 29.76 29.74 0    
Aug 15 14:00 NNE 3 10 Mostly Cloudy FEW080 FEW100 BKN110 71 65     81%   72 29.76   0    
Aug 15 13:53 Calm 10 Thunderstorms and Rain FEW035 FEW080 BKN110 69 64     84%     29.76 29.74 0   0
Aug 15 13:44 NNE 3 9 Thunderstorms and Rain SCT033 BKN080 BKN100 70 64     81%     29.75   0    
Aug 15 13:37 NNW 3 2.5 Thunderstorms and Rain FEW029 BKN038 OVC080 70 64     81%     29.76   0    
Aug 15 13:34 6 1 Thunderstorms and Rain FEW029 BKN036 OVC080 72 63     73%   72 29.77   0    
Aug 15 13:23   0.75 Thunderstorms and Heavy Rain BKN029 BKN050 BKN070 70 64     81%     29.79   0    
Aug 15 13:20   1.25 Thunderstorms and Heavy Rain SCT028 BKN033 BKN048 71 65     81%   72 29.78   0    
Aug 15 13:18 WNW 11 1.5 Heavy Rain SCT028 BKN033 BKN048 72 65     79%   73 29.77   0    
Aug 15 12:53 SW 7 10 Partly Cloudy SCT029 SCT036 81 66     61%   83 29.74 29.72      
Aug 15 12:39 WSW 10 10 Mostly Cloudy SCT029 BKN037 82 67     60%   85 29.74        
Aug 15 11:53 SSW 7 10 Mostly Clear FEW028 80 68     67%   83 29.76 29.73      
Aug 15 11:44 W 5 10 Partly Cloudy FEW020 SCT028 78 68     71%   79 29.76        
Aug 15 11:17 WNW 7 10 Mostly Cloudy SCT015 BKN024 79 69     72%   80 29.77        
Aug 15 10:53 WSW 7 10 Mostly Cloudy BKN011 BKN033 77 69     77%   78 29.77 29.75      
Aug 15 10:16 SSW 7 10 Mostly Cloudy BKN010 BKN019 76 69     79%   77 29.76        
Aug 15 09:53 SW 7 10 Mostly Cloudy BKN009 74 68     82%   75 29.77 29.75      
Aug 15 09:40 SSW 8 10 Mostly Cloudy BKN009 75 69     82%   76 29.77        
Aug 15 08:53 SW 5 10 Cloudy SCT006 OVC012 71 67     87%   72 29.78 29.75      
Aug 15 08:43 SW 3 10 Cloudy BKN007 OVC012 71 67     87%   72 29.78        
Aug 15 08:18 SW 6 10 Cloudy BKN005 OVC049 71 67     87%   72 29.77        
Aug 15 07:53 SSW 10 10 Cloudy BKN003 OVC047 71 67     87%   72 29.77 29.75     0
Aug 15 07:20 S 7 10 Cloudy BKN004 OVC012 70 66     87%     29.77        
Aug 15 07:10 S 6 10 Cloudy BKN006 OVC012 70 66     87%     29.77        
Aug 15 06:53 S 7 10 Cloudy SCT005 BKN014 OVC047 69 65     87%     29.77 29.75      
Aug 15 06:46 S 6 10 Cloudy FEW005 BKN014 OVC047 69 65     87%     29.78        
Aug 15 05:53 SW 3 10 Partly Cloudy SCT120 69 65     87%     29.76 29.74 0    
Aug 15 04:53 SW 8 10 Light Rain FEW008 OVC095 70 66     87%     29.76 29.74 0 0  
Aug 15 04:09 W 7 7 Light Rain SCT006 BKN037 OVC060 71 66     84%   72 29.76   0    
Aug 15 03:53 W 8 5 Light Rain and Fog/Mist BKN003 BKN010 71 67     87%   72 29.76 29.74 0    
Aug 15 03:37 SW 6 4 Light Rain and Fog/Mist BKN002 OVC010 71 67     87%   72 29.76   0    
Aug 15 03:35 SW 6 2 Light Rain and Fog/Mist FEW002 BKN005 OVC013 71 67     87%   72 29.76   0    
Aug 15 03:33 SW 7 1.5 Light Rain and Fog/Mist FEW002 BKN005 OVC013 71 67     87%   72 29.76   0    
Aug 15 03:30 SW 8 1.25 Light Rain and Fog/Mist SCT005 BKN010 OVC013 71 67     87%   72 29.76   0    
Aug 15 03:25 SW 7 1.5 Light Rain and Fog/Mist FEW004 BKN008 OVC015 71 67     87%   72 29.76   0    
Aug 15 03:19 5 3 Light Rain and Fog/Mist FEW004 BKN010 OVC013 71 68     90%   72 29.76   0    
Aug 15 03:12 S 5 3 Light Rain and Fog/Mist FEW004 SCT009 OVC016 71 68     90%   72 29.76   0    
Aug 15 03:02 S 6 1.75 Heavy Rain and Fog/Mist FEW004 SCT009 OVC016 71 67     87%   72 29.76   0    
Aug 15 02:53 S 6 8 Light Rain FEW009 BKN016 OVC033 72 67     84%   73 29.77 29.74 0    
Aug 15 02:49 S 6 10 Cloudy FEW011 BKN016 OVC033 72 66     83%   72 29.77   0    
Aug 15 01:53 S 6 10 Cloudy FEW032 BKN075 OVC090 72 67     84%   73 29.78 29.76 0   0
Aug 15 00:53 S 5 10 Cloudy BKN040 BKN065 OVC085 72 67     84%   73 29.8 29.78      
Aug 14 23:53 3 10 Cloudy OVC080 73 67     81%   74 29.8 29.78      
Aug 14 22:53 S 6 10 Partly Cloudy SCT080 73 67     81%   74 29.8 29.78      
Aug 14 21:53 S 9 10 Clear CLR 74 67     79%   75 29.8 29.78      
Aug 14 20:53 S 7 10 Clear CLR 75 67     76%   76 29.81 29.79      
Aug 14 19:53 S 6 10 Clear CLR 76 67     74%   77 29.81 29.79      
Aug 14 18:53 SE 3 10 Cloudy FEW050 OVC080 77 68     74%   78 29.82 29.8      
Aug 14 17:53 Calm 10 Partly Cloudy SCT038 78 67     69%   79 29.83 29.81      
Aug 14 16:53 SE 5 10 Clear CLR 78 67     69%   79 29.84 29.82      
Aug 14 15:53 S 7 10 Clear CLR 78 66     67%   79 29.86 29.84      
Aug 14 14:53 S 10 10 Mostly Clear FEW020 77 66     69%   78 29.88 29.86      
Aug 14 14:37 S 10 10 Partly Cloudy FEW020 SCT028 78 66     67%   79 29.88        
Aug 14 14:20 SSE 8 10 Mostly Cloudy SCT021 BKN027 77 67     71%   78 29.89        
Aug 14 13:53 S 6 10 Mostly Clear FEW017 FEW047 76 66     71%   77 29.9 29.88      
Aug 14 13:35 S 8 10 Partly Cloudy SCT014 76 66     71%   77 29.9        
Aug 14 13:05 S 10 10 Mostly Cloudy BKN015 75 66     74%   76 29.91        
Aug 14 12:53 SSE 9 10 Mostly Cloudy BKN013 74 66     76%   75 29.92 29.9      
Aug 14 12:10 SSE 9 10 Cloudy OVC011 74 66     76%   75 29.93        
Aug 14 11:53 7 10 Cloudy OVC008 74 66     76%   75 29.93 29.91      
Aug 14 10:53 SSE 6 10 Cloudy OVC006 72 66     82%   73 29.95 29.93      
Aug 14 10:46 S 9 10 Cloudy OVC006 71 65     81%   72 29.95        
Aug 14 10:28 SSE 7 10 Cloudy OVC005 71 66     84%   72 29.95        
Aug 14 09:53 SSE 7 10 Cloudy OVC003 70 65     84%     29.95 29.93      
Notice The following observation data may not be complete
Aug 14 09:01   6 Fog/Mist OVC002          %              
Aug 14 08:53 SSE 7 2 Fog/Mist OVC002 69 65     87%     29.96 29.94      
Aug 14 06:53 SSE 7 0.25 Fog VV002 68 65     90%     29.96 29.94      
Aug 14 05:53 S 5 0.25 Fog VV002 68 65     90%     29.96 29.94      
Aug 14 04:24 S 7 0.5 Fog VV002 68 65     90%     29.96        
Aug 14 04:10 S 8 1.25 Fog/Mist OVC002 68 65     90%     29.96        
Aug 14 04:04 S 8 1.75 Fog/Mist OVC002 68 65     90%     29.96        
Aug 14 03:53 S 7 3 Fog/Mist OVC002 69 65     87%     29.96 29.94      
Aug 14 03:32 S 7 4 Fog/Mist BKN002 68 65     90%     29.97        
Aug 14 03:20 S 8 6 Fog/Mist FEW002 68 65     90%     29.97        
Aug 14 02:53 S 7 8 Clear CLR 69 65     87%     29.98 29.96      
Aug 14 01:53 S 7 10 Clear CLR 69 65     87%     29.98 29.96      
Aug 14 00:53 S 5 10 Clear CLR 70 64     81%     29.99 29.97      
Aug 13 23:53 S 6 10 Mostly Cloudy BKN065 72 64     76%   72 29.99 29.97      
Aug 13 21:53 SSE 6 10 Clear CLR 75 61     62%   75 30 29.97      
Aug 13 20:53 S 6 10 Clear CLR 77 61     58%   77 30 29.98      
Aug 13 19:53 SSE 6 10 Clear CLR 78 61     56%   78 29.99 29.97      
Aug 13 18:53 S 5 10 Clear CLR 81 60     49%   82 29.99 29.97      
Aug 13 17:53 S 6 10 Clear CLR 83 61     48%   83 30 29.98      
Aug 13 16:53 S 6 10 Mostly Clear FEW065 85 58     40%   84 30.01 29.99      
Aug 13 15:53 6 10 Mostly Cloudy BKN065 86 58     39%   85 30.03 30.01      
Aug 13 14:53 5 10 Clear CLR 85 59     42%   85 30.04 30.02      
Aug 13 13:53 5 10 Clear CLR 85 61     45%   85 30.05 30.03      
Aug 13 12:53 WSW 8 10 Mostly Clear FEW044 84 61     46%   84 30.07 30.05      
Aug 13 11:53 SSE 5 10 Clear CLR 81 64     56%   83 30.1 30.08      
Aug 13 10:53 Calm 10 Clear CLR 80 64     58%   82 30.12 30.09      
Aug 13 09:53 S 6 10 Clear CLR 74 63     69%   74 30.12 30.1      
Aug 13 08:53 Calm 10 Clear CLR 70 62     76%     30.13 30.11      
Notice The following observation data may not be complete
Aug 13 07:53 S 7 10 Mostly Clear FEW002   61      %     30.14 30.12      
Aug 13 07:20 SSW 6 10 Mostly Clear FEW002 65 59     81%     30.13        
Notice The following observation data may not be complete
Aug 13 06:53 S 3 10 Clear CLR   59      %     30.13 30.11      
Notice The following observation data may not be complete
Aug 13 00:53 S 6 10 Clear CLR   58      %     30.14 30.12      
Notice The following observation data may not be complete
Aug 12 23:53 S 6 10 Clear CLR   58      %     30.14 30.12      
Aug 12 22:53 S 6 10 Clear CLR 72 58     61%   72 30.13 30.11      
Notice The following observation data may not be complete
May 15 07:53 SSW 6 10 Clear CLR   41      %     29.69 29.68      
May 15 04:53 SSE 9 10 Partly Cloudy SCT110 51 38     61%     29.69 29.68      
Notice The following observation data may not be complete
May 14 23:53 Calm 10 Clear CLR   35      %     29.77 29.75      
May 14 16:53 W 18 10 Partly Cloudy SCT120 78 37     23%   77 29.66 29.65      
May 14 13:53 WSW 16 10 Mostly Clear FEW085 76 36     23%   74 29.68 29.67      
May 14 12:53 SW 20 10 Clear and Windy CLR 76 37     24%   74 29.69 29.68      
May 12 12:53 WSW 11 10 Clear CLR 54 17     23%     30.04 30.06      
May 12 09:53 W 10 10 Clear CLR 45 18     34% 40   30.12 30.14      
May 12 08:53 WSW 10 10 Clear CLR 42 18     37% 36   30.12 30.14      
May 12 07:53 W 8 10 Clear CLR 38 19     46% 32   30.13 30.15      
May 11 18:53 NW 20 10 Clear and Windy CLR 42 14     32% 33   29.98 29.99      
May 11 15:53 NW 22 10 Clear and Windy CLR 45 17     32% 37   29.91 29.92      
May 11 13:53   10 Clear CLR 45 17     32%     29.88 29.89 0   0
Jun 10 18:53 WSW 7 10 Clear CLR 68 31     25%     29.82 29.81      
Jun 10 09:53   10 Clear CLR 56 37     49%     29.87 29.86